This demonstration page uses our WeatherBlox Daily Observations layout. Learn more.

Left ArrowRight Arrow

53.62937, 11.41316

Hourly Observations for November 9, 2022

Temp ( °F °C ) Dew Point ( °F °C ) Humidity (%) Winds ( mph kmh ) Pressure ( in mb ) Visibility ( mi km ) Precip ( " mm )
12:20 am 00:20 Partly Cloudy 55 13 46 8 72 72 SSW 6 9 29.71 1006 6 10 0.00 0.00
12:50 am 00:50 Mostly Cloudy 57 14 46 8 67 67 SSW 7 11 29.71 1006 6 10 0.00 0.00
1:20 am 01:20 Mostly Cloudy 57 14 46 8 67 67 VRB 6 9 29.71 1006 6 10 0.00 0.00
1:50 am 01:50 Mostly Cloudy 57 14 46 8 67 67 VRB 5 7 29.71 1006 6 10 0.00 0.00
2:20 am 02:20 Mostly Cloudy 55 13 46 8 72 72 VRB 6 9 29.71 1006 6 10 0.00 0.00
2:50 am 02:50 Partly Cloudy 55 13 46 8 72 72 SSW 6 9 29.71 1006 6 10 0.00 0.00
3:20 am 03:20 Mostly Clear 55 13 46 8 72 72 SSW 6 9 29.71 1006 6 10 0.00 0.00
3:50 am 03:50 Mostly Cloudy 55 13 46 8 72 72 VRB 5 7 29.68 1005 6 10 0.00 0.00
4:20 am 04:20 Cloudy 55 13 46 8 72 72 VRB 5 7 29.71 1006 6 10 0.00 0.00
4:50 am 04:50 Mostly Cloudy 55 13 46 8 72 72 S 5 7 29.68 1005 6 10 0.00 0.00
5:20 am 05:20 Cloudy 55 13 46 8 72 72 VRB 5 7 29.68 1005 6 10 0.00 0.00
5:50 am 05:50 Mostly Cloudy 55 13 46 8 72 72 SSW 5 7 29.68 1005 6 10 0.00 0.00
6:20 am 06:20 Mostly Clear 55 13 48 9 77 77 SSW 5 7 29.68 1005 6 10 0.00 0.00
6:50 am 06:50 Mostly Clear 55 13 48 9 77 77 SSW 5 7 29.71 1006 6 10 0.00 0.00
7:20 am 07:20 Mostly Clear 55 13 48 9 77 77 S 6 9 29.71 1006 6 10 0.00 0.00
7:50 am 07:50 Mostly Sunny 55 13 48 9 77 77 SSW 5 7 29.71 1006 6 10 0.00 0.00
8:20 am 08:20 Partly Cloudy 57 14 48 9 72 72 SSW 5 7 29.71 1006 6 10 0.00 0.00
8:50 am 08:50 Partly Cloudy 55 13 48 9 77 77 SSW 6 9 29.71 1006 6 10 0.00 0.00
11:20 am 11:20 Mostly Sunny 59 15 48 9 67 67 SSW 8 13 29.73 1007 6 10 0.00 0.00
11:50 am 11:50 Mostly Sunny 59 15 48 9 67 67 VRB 7 11 29.73 1007 6 10 0.00 0.00
12:20 pm 12:20 Mostly Sunny 59 15 48 9 67 67 VRB 8 13 29.73 1007 6 10 0.00 0.00
12:50 pm 12:50 Mostly Sunny 59 15 48 9 67 67 VRB 6 9 29.73 1007 6 10 0.00 0.00
1:20 pm 13:20 Partly Cloudy 59 15 46 8 63 63 VRB 8 13 29.73 1007 6 10 0.00 0.00
1:50 pm 13:50 Mostly Sunny 59 15 46 8 63 63 VRB 7 11 29.73 1007 6 10 0.00 0.00
2:20 pm 14:20 Mostly Sunny 59 15 46 8 63 63 VRB 6 9 29.73 1007 6 10 0.00 0.00
2:50 pm 14:50 Partly Cloudy 59 15 46 8 63 63 VRB 6 9 29.73 1007 6 10 0.00 0.00
3:20 pm 15:20 Mostly Sunny 59 15 46 8 63 63 VRB 6 9 29.73 1007 6 10 0.00 0.00
3:50 pm 15:50 Partly Cloudy 57 14 46 8 67 67 VRB 3 6 29.73 1007 6 10 0.00 0.00
4:20 pm 16:20 Partly Cloudy 57 14 46 8 67 67 SSW 5 7 29.73 1007 6 10 0.00 0.00
4:50 pm 16:50 Partly Cloudy 57 14 46 8 67 67 SSW 5 7 29.76 1008 6 10 0.00 0.00
5:20 pm 17:20 Mostly Clear 55 13 46 8 72 72 SSW 5 7 29.76 1008 6 10 0.00 0.00
5:50 pm 17:50 Mostly Clear 55 13 46 8 72 72 SSW 5 7 29.76 1008 6 10 0.00 0.00
6:20 pm 18:20 Mostly Clear 55 13 46 8 72 72 SSW 6 9 29.76 1008 6 10 0.00 0.00
6:50 pm 18:50 Partly Cloudy with Showers Nearby 54 12 46 8 76 76 VRB 6 9 29.76 1008 6 10 0.00 0.00
7:20 pm 19:20 Partly Cloudy with Showers Nearby 55 13 46 8 72 72 SSW 5 7 29.76 1008 6 10 0.00 0.00
7:50 pm 19:50 Mostly Cloudy with Showers 55 13 46 8 72 72 VRB 5 7 29.79 1009 4 6 0.00 0.00
8:20 pm 20:20 Cloudy with Showers Nearby 52 11 48 9 87 87 VRB 2 4 29.79 1009 6 10 0.00 0.00
8:50 pm 20:50 Partly Cloudy 54 12 48 9 82 82 VRB 6 9 29.79 1009 6 10 0.00 0.00
9:20 pm 21:20 Mostly Cloudy 52 11 48 9 87 87 VRB 6 9 29.82 1010 6 10 0.00 0.00
9:50 pm 21:50 Mostly Cloudy 54 12 46 8 76 76 WSW 8 13 29.82 1010 6 10 0.00 0.00
10:20 pm 22:20 Mostly Cloudy 54 12 46 8 76 76 VRB 8 13 29.82 1010 6 10 0.00 0.00
10:50 pm 22:50 Mostly Cloudy 54 12 48 9 82 82 WSW 7 11 29.85 1011 6 10 0.00 0.00
11:20 pm 23:20 Cloudy 54 12 48 9 82 82 W 9 15 29.85 1011 6 10 0.00 0.00
11:50 pm 23:50 Cloudy 52 11 48 9 87 87 WSW 8 13 29.85 1011 6 10 0.00 0.00

Powered by AerisWeather